Windsor, Ontario

2:20 AM EDT on June 27, 2017 (GMT -0400)
Windsor

Weather History for CYQG - November, 2011

Change the Weather History Date:

Tuesday, November 22, 2011

  Actual Average Record
Temperature  
Mean Temperature 36 °F -  
Max Temperature 41 °F 38 °F 62 °F (1999)
Min Temperature 32 °F 25 °F 18 °F (2014)
Degree Days  
Heating Degree Days 28    
Moisture  
Dew Point 34 °F    
Average Humidity 89    
Maximum Humidity 100    
Minimum Humidity 81    
Precipitation  
Precipitation 1.18 in 0.10 in - ()
Sea Level Pressure  
Sea Level Pressure 30.08 in    
Wind  
Wind Speed 12 mph ()    
Max Wind Speed 33 mph    
Max Gust Speed 40 mph    
Visibility 5.8 miles    
Events Rain    
Averages and records for this station are not official NWS values.
T = Trace of Precipitation, MM = Missing Value Source: Averaged Metar Reports

Daily Weather History Graph

Daily Weather History Graph

Search for Another Location

Airport or City:

Trip Planner

Search our weather history database for the weather conditions in past years. The results will help you decide how hot, cold, wet, or windy it might be!

Date:

Astronomy

Nov. 22, 2011 Rise Set
Actual Time 7:30 AM EST 5:04 PM EST
Civil Twilight 6:59 AM EST 5:35 PM EST
Nautical Twilight 6:25 AM EST 6:09 PM EST
Astronomical Twilight 5:52 AM EST 6:43 PM EST
Moon 4:17 AM EST (11/22) 3:05 PM EST (11/22)
Length of Visible Light 10h 35m
Length of Day
9h 34m
Waning Crescent, 9% of the Moon is Illuminated
Nov 22
Waning Crescent
Nov 25
New
Dec 2
First Quarter
Dec 10
Full
Dec 17
Last Quarter

Hourly Weather History & Observations

Time (EST) Temp. Windchill Dew Point Humidity Pressure Visibility Wind Dir Wind Speed Gust Speed Precip Events Conditions
12:00 AM 33.8 °F - 30.2 °F 87% 30.31 in 15.0 mi Calm Calm - N/A   Clear
1:00 AM 33 °F - 30 °F 85% 30.30 in 15 mi Calm Calm - -  
1:00 AM 33.8 °F - 30.2 °F 87% 30.30 in 15.0 mi Calm Calm - N/A   Clear
2:00 AM 33.8 °F 27.7 °F 30.2 °F 87% 30.30 in 15.0 mi NE 6.9 mph - N/A   Clear
3:00 AM 37.4 °F 30.8 °F 33.8 °F 87% 30.31 in 15.0 mi ENE 9.2 mph - N/A   Mostly Cloudy
4:00 AM 35.6 °F 28.0 °F 33.8 °F 93% 30.28 in 10.0 mi NE 10.4 mph - N/A   Mostly Cloudy
5:00 AM 37.4 °F 30.8 °F 33.8 °F 87% 30.28 in 5.0 mi ENE 9.2 mph - N/A   Mostly Cloudy
6:00 AM 37.4 °F 28.9 °F 33.8 °F 87% 30.25 in 4.0 mi ENE 13.8 mph 20.7 mph N/A   Overcast
6:33 AM - - - N/A% - 4.0 mi ENE 15.0 mph - N/A   Overcast
7:00 AM 36 °F - 34 °F 89% 30.24 in 4 mi ENE 13.8 mph - -   Mist
7:00 AM 37.4 °F 28.9 °F 33.8 °F 87% 30.24 in 4.0 mi ENE 13.8 mph 19.6 mph N/A   Overcast
8:00 AM 37.4 °F 29.3 °F 35.6 °F 93% 30.25 in 4.0 mi ENE 12.7 mph - N/A   Overcast
8:25 AM - - - N/A% - 5.0 mi ENE 15.0 mph - N/A   Overcast
9:00 AM 37.4 °F 28.5 °F 33.8 °F 87% 30.21 in 5.0 mi ENE 15.0 mph - N/A   Overcast
9:38 AM - - - N/A% - 5.0 mi ENE 13.8 mph - N/A   Overcast
10:00 AM 37.4 °F 28.9 °F 35.6 °F 93% 30.19 in 5.0 mi ENE 13.8 mph 19.6 mph N/A   Overcast
11:00 AM 41.0 °F 33.1 °F 37.4 °F 87% 30.18 in 6.0 mi ENE 15.0 mph - N/A   Overcast
12:00 PM 41.0 °F 31.6 °F 37.4 °F 87% 30.12 in 8.0 mi ENE 20.7 mph - N/A   Overcast
1:00 PM 40 °F - 36 °F 81% 30.08 in 7 mi ENE 18.4 mph - -   Overcast
1:00 PM 41.0 °F 31.9 °F 35.6 °F 81% 30.08 in 8.0 mi ENE 19.6 mph - N/A   Overcast
1:21 PM - - - N/A% - 8.0 mi ENE 18.4 mph - N/A Rain Light Rain Showers
2:00 PM 39.2 °F 29.6 °F 33.8 °F 81% 30.03 in 6.0 mi NE 19.6 mph - N/A Rain Light Rain
3:00 PM 37.4 °F 26.9 °F 33.8 °F 87% 29.96 in 5.0 mi NE 20.7 mph - N/A Rain Rain
4:00 PM 37.4 °F 26.9 °F 33.8 °F 87% 29.92 in 3.0 mi ENE 20.7 mph - N/A Rain Rain
4:19 PM - - - N/A% - 2.0 mi ENE 17.3 mph 25.3 mph N/A Rain Rain
4:30 PM - - - N/A% - 2.0 mi NE 20.7 mph - N/A Rain Rain
5:00 PM 37.4 °F 26.6 °F 35.6 °F 93% 29.90 in 2.5 mi NE 21.9 mph - N/A Rain Rain
5:40 PM - - - N/A% - 2.5 mi NE 19.6 mph - N/A Rain Heavy Rain
6:00 PM 37.4 °F 26.1 °F 35.6 °F 93% 29.83 in 2.5 mi ENE 24.2 mph 31.1 mph N/A Rain Heavy Rain
6:27 PM - - - N/A% - 5.0 mi ENE 21.9 mph 29.9 mph N/A Rain Rain
7:00 PM 37 °F - 35 °F 90% 29.82 in 3 mi NE 26.5 mph - - Rain Rain
7:00 PM 37.4 °F 25.6 °F 35.6 °F 93% 29.82 in 3.0 mi NE 26.5 mph 36.8 mph N/A Rain Rain
7:24 PM - - - N/A% - 1.5 mi NE 18.4 mph 28.8 mph N/A Rain Heavy Rain
8:00 PM 37.4 °F 27.2 °F 35.6 °F 93% 29.80 in 2.0 mi NE 19.6 mph 25.3 mph N/A Rain Heavy Rain
8:34 PM - - - N/A% - 3.0 mi NE 24.2 mph - N/A Rain Heavy Rain
9:00 PM 37.4 °F 26.4 °F 35.6 °F 93% 29.77 in 3.0 mi NE 23.0 mph 29.9 mph N/A Rain Heavy Rain
10:00 PM 37.4 °F 25.6 °F 37.4 °F 100% 29.74 in 4.0 mi NE 26.5 mph - N/A Rain Light Rain
11:00 PM 37.4 °F 24.4 °F 35.6 °F 93% 29.73 in 4.0 mi NE 33.4 mph 40.3 mph N/A Rain Rain